Regional Weather Roundup
Issued by NWS

Home | Current Version | Previous Version | Text Only | Print | Product List | Glossary On
Versions: 1 2 3 4 5 6 7 8 9 10 11 12 13 14 15 16 17 18 19 20 21 22 23 24 25 26 27 28 29 30 31 32 33 34 35 36 37 38 39 40 41 42 43 44 45 46 47 48 49 50
000
ASUS46 KSTO 251515
RWRCA

NORTHERN AND CENTRAL CA REGIONAL WEATHER ROUNDUP
NATIONAL WEATHER SERVICE SACRAMENTO CA
800 AM PDT TUE JUL 25 2017

NOTE: FAIR INDICATES FEW OR NO CLOUDS BELOW 12,000 FEET WITH NO
SIGNIFICANT WEATHER AND/OR OBSTRUCTIONS TO VISIBILITY.

CAZ001-003-251600-
NORTHWEST AREA

CITY           SKY/WX    TMP DP  RH WIND       PRES   REMARKS
CRESCENT CITY  CLOUDY    53  53 100 S9        29.95R
UKIAH          SUNNY     58  52  80 SE7       29.95R
$$

CAZ006-505>513-251600-
BAY AREA

CITY           SKY/WX    TMP DP  RH WIND       PRES   REMARKS
SANTA ROSA     CLOUDY    58  54  86 NW3       29.95R
SAN RAFAEL     N/A       56  MM  MM MISG
NAPA           SUNNY     62  54  74 W6        29.95R
CONCORD        SUNNY     63  55  75 W12       29.94R
OAKLAND CITY   N/A      MM  MM  MM MISG
OAKLAND        CLOUDY    64  57  78 N3        29.95R
SAN FRAN CITY  N/A       60  MM  78 MISG
SAN FRAN ARPT  CLOUDY    63  53  70 S8        29.94R
LIVERMORE      SUNNY     61  54  77 CALM      29.94R
HAYWARD        CLOUDY    64  53  67 CALM      29.95R
REDWOOD CITY   N/A       63  MM  78 MISG
MOFFETT ARPT   PTSUNNY   63  56  78 CALM      29.95R
SAN JOSE ARPT  MOSUNNY   63  55  75 E6        29.95R
$$
CAZ034-037-514>518-251600-
CENTRAL COAST

CITY           SKY/WX    TMP DP  RH WIND       PRES   REMARKS
WATSONVILLE    CLOUDY    60  56  86 SW5       29.97R
SALINAS        CLOUDY    61  55  81 SW6       29.96R
MONTEREY       CLOUDY    60  54  80 CALM      29.97R
SAN LUIS OBISP CLOUDY    59  56  89 W3        29.98R FOG
SANTA MARIA    CLOUDY    59  59 100 SW9G24    29.98R FOG
$$
CAZ015-016-251600-
NORTHERN SACRAMENTO VALLEY

CITY           SKY/WX    TMP DP  RH WIND       PRES   REMARKS
REDDING        SUNNY     75  54  47 CALM      29.89R
RED BLUFF      SUNNY     73  52  47 N3        29.90R
OROVILLE       SUNNY     71  52  50 S3        29.91R
$$
CAZ016>018-251600-
SOUTHERN SACRAMENTO VALLEY

CITY           SKY/WX    TMP DP  RH WIND       PRES   REMARKS
AUBURN         SUNNY     73  50  43 E5        29.94R
BEALE AFB      SUNNY     69  53  55 S5        29.88R
LINCOLN        FAIR      70  46  43 SE12      29.89R
MARYSVILLE     SUNNY     67  53  61 S6        29.90R
SAC INTL ARPT  SUNNY     64  55  72 S6        29.89R
MATHER AIRPORT SUNNY     63  54  72 S7        29.90R
DOWNTOWN SAC   N/A       66  MM  MM MISG
SAC EXEC ARPT  SUNNY     64  55  72 SW6       29.90R
VACAVILLE      SUNNY     69  52  54 W6        29.91R
TRAVIS AFB     SUNNY     62  53  71 SW18      29.89R
$$
CAZ019>021-251600-
SAN JOAQUIN VALLEY

CITY           SKY/WX    TMP DP  RH WIND       PRES   REMARKS
STOCKTON       SUNNY     66  58  75 NW8       29.91R
MODESTO        SUNNY     67  56  67 NW8       29.90R
MERCED         SUNNY     68  53  58 NW8       29.90R
LEMOORE        MOSUNNY   71  55  56 NW9       29.91R
FRESNO         MOSUNNY   72  58  61 NW3       29.91R
HANFORD        SUNNY     71  59  65 CALM      29.91R
BAKERSFIELD    SUNNY     80  47  31 NW9       29.90R
$$
CAZ011-012-071-251600-
NORTHERN MOUNTAINS

CITY           SKY/WX    TMP DP  RH WIND       PRES   REMARKS
YREKA          MOSUNNY   73  51  46 CALM      30.02R
MOUNT SHASTA   SUNNY     67  54  63 CALM      30.05R
ALTURAS        SUNNY     60  54  80 CALM      30.11R
$$
CAZ011-012-071-251600-
SIERRA NEVADA MTNS

CITY           SKY/WX    TMP DP  RH WIND       PRES   REMARKS
TRUCKEE        MOSUNNY   52  46  82 CALM      30.20R
TAHOE VLY ARPT SUNNY     56  49  77 CALM      30.20R
MAMMOTH LAKES  FAIR      58  48  69 CALM      30.28S
$$



USA.gov is the U.S. government's official web portal to all federal, state and local government web resources and services.